Regional Weather Roundup
Issued by NWS

Home | Current Version | Previous Version | Graphics & Text | Print | Product List | Glossary On
Versions: 1 2 3 4 5 6 7 8 9 10 11 12 13 14 15 16 17 18 19 20 21 22 23 24 25 26 27 28 29 30 31 32 33 34 35 36 37 38 39 40 41 42 43 44 45 46 47 48 49 50
000
ASUS43 KDMX 201606
RWRIA

WEATHER ROUNDUP FOR IOWA
NATIONAL WEATHER SERVICE DES MOINES IA
1000 AM CST FRI JAN 20 2017

NOTE: "FAIR" INDICATES FEW OR NO CLOUDS BELOW 12,000 FEET WITH NO
SIGNIFICANT WEATHER AND/OR OBSTRUCTIONS TO VISIBILITY.

* - THESE STATIONS ARE NOT NWS STATIONS...THUS NOT UNDER NWS
QUALITY CONTROL.  THEY ALSO DO NOT REPORT WEATHER SUCH
AS PRECIPITATION OR FOG.

IAZ001>003-012>014-020>022-031>034-043>046-201700-
   NORTHWEST IOWA

CITY           SKY/WX    TMP DP  RH WIND       PRES   REMARKS
CARROLL *      FOG       37  37 100 SE3       29.59F VSB<1/4
CHEROKEE *     CLOUDY    36  36 100 S8        29.58R FOG     WCI  30
DENISON *      CLOUDY    39  39 100 SE6       29.56S FOG     WCI  35
LE MARS *      CLOUDY    39  39 100 S3        29.56S FOG
ORANGE CITY *  LGT RAIN  36  36 100 S6        29.55S VSB 1/4 WCI  31
SHELDON *      FOG       36  36 100 SE13      29.55R VSB 1/2 WCI  27
SIOUX CITY     CLOUDY    40  38  93 SE8       29.55F FOG     WCI  34
SPENCER        CLOUDY    36  35  96 SE8       29.57S FOG     WCI  30
STORM LAKE *   FOG       36  36 100 S9        29.58R VSB<1/4 WCI  29
$$

IAZ055>058-069>071-079>083-090>094-201700-
   SOUTHWEST IOWA

CITY           SKY/WX    TMP DP  RH WIND       PRES   REMARKS
ATLANTIC *     FOG       37  37 100 CALM      29.59S VSB 1
AUDUBON *      FOG       37  36  93 CALM      29.59F VSB 1/2
CLARINDA *     CLOUDY    39  39 100 NE5       29.58F
COUNCIL BLFS * CLOUDY    39  39 100 SE6       29.56F FOG     WCI  35
CRESTON *      FOG       37  37 100 SE3       29.61R VSB 1/4
HARLAN  *      CLOUDY    39  39 100 CALM      29.61F FOG
LAMONI         FOG       39  39 100 VRB3      29.61R VSB 1/4
RED OAK *      CLOUDY    39  39 100 NE5       29.57F
SHENANDOAH *   CLOUDY    39  39 100 NE7       29.57F FOG     WCI  34
$$

IAZ047>049-059>061-072>074-084-201700-
   CENTRAL IOWA

CITY           SKY/WX    TMP DP  RH WIND       PRES   REMARKS
AMES           CLOUDY    36  36 100 CALM      29.62R FOG
ANKENY *       CLOUDY    37  37 100 S3        29.63S FOG
BOONE *        FOG       36  36 100 S5        29.61S VSB<1/4 WCI  32
CHARITON *     CLOUDY    37  37 100 SE5       29.61S FOG     WCI  34
DES MOINES     FOG       38  38 100 CALM      29.62S VSB 1/4
GRINNELL*      FOG       36  36  99 SE5       29.63F VSB 1/2 WCI  32
KNOXVILLE *    FOG       39  39 100 CALM      29.59F VSB 3/4
MARSHALLTOWN   FOG       36  36 100 SE3       29.62R VSB 1/2
NEWTON *       FOG       37  36  93 SE5       29.61F VSB 1/4 WCI  34
PELLA *        FOG       38  38  99 CALM      29.64S VSB 1/2
PERRY *        FOG       37  36  98 SE5       29.61F VSB 1/4 WCI  33
$$

IAZ004>006-015-016-023>025-035-036-201700-
   NORTH CENTRAL IOWA

CITY           SKY/WX    TMP DP  RH WIND       PRES   REMARKS
ALGONA *       FOG       36  36 100 S9        29.59R VSB 1   WCI  29
CLARION *      FOG       36  36 100 S8        29.61R VSB 1/2 WCI  29
ESTHERVILLE    FOG       34  34 100 S7        29.56R VSB 1/4 WCI  28
FORT DODGE *   CLOUDY    36  32  87 SE3       29.61R
MASON CITY     FOG       33  33 100 SE8       29.61R VSB 1/4 WCI  26
FOREST CITY *  FOG       34  34 100 SE7       29.60S VSB 1/2 WCI  28
WEBSTER CITY * FOG       36  36 100 SE6       29.59R VSB 1/2 WCI  31
IOWA FALLS *   FOG       36  35  96 SE7       29.63R VSB 1/2 WCI  30
$$

IAZ007>011-017>019-026>030-037>042-050>054-066-201700-
   NORTHEAST IOWA

CITY           SKY/WX    TMP DP  RH WIND       PRES   REMARKS
CEDAR RAPIDS   FOG       36  36 100 SE5       29.63R VSB 1/2 WCI  32
CHARLES CITY * FOG       34  34 100 SE7       29.62S VSB<1/4 WCI  28
CLINTON *      CLOUDY    38  38 100 SE3       29.66R FOG
DECORAH *      FOG       36  36 100 SE6       29.62S VSB<1/4 WCI  31
DUBUQUE        FOG       36  36 100 SE7       29.64S VSB 1/2 WCI  30
MONTICELLO *   CLOUDY    37  37 100 SE7       29.64S FOG     WCI  32
OELWEIN *      CLOUDY    36  36 100 SE9       29.63S FOG     WCI  29
WATERLOO       FOG       36  35  96 SE5       29.63R VSB 3/4 WCI  32
$$

IAZ064-065-067-068-078-201700-
   EAST CENTRAL IOWA

CITY           SKY/WX    TMP DP  RH WIND       PRES   REMARKS
DAVENPORT      CLOUDY    38  37  97 SE3       29.65S FOG
IOWA CITY      CLOUDY    38  36  92 E6        29.66S FOG     WCI  33
MUSCATINE *    CLOUDY    39  37  93 CALM      29.66S FOG
QUAD CITIES    CLOUDY    39  36  89 S3        29.65R FOG
$$

IAZ062-063-075>077-085>089-095>099-201700-
   SOUTHEAST IOWA

CITY           SKY/WX    TMP DP  RH WIND       PRES   REMARKS
BURLINGTON     FOG       38  38 100 S6        29.65R VSB 1/4 WCI  33
FAIRFIELD *    FOG       37  37 100 E8        29.64R VSB<1/4 WCI  31
FORT MADISON * FOG       39  37  93 SE3       29.67R VSB<1/4
KEOKUK *       FOG       39 N/A N/A CALM      29.65R VSB<1/4
OSKALOOSA *    FOG       37  36  99 E3        29.62F VSB 1/4
OTTUMWA        FOG       38  36  92 E5        29.62S VSB 1/4 WCI  34
WASHINGTON *   FOG       37  37 100 E6        29.64F VSB 1/2 WCI  33
$$

ABBREVIATIONS USED IN REMARKS
   TC - TEMPERATURES IN CELSIUS
  WCI - WIND CHILL INDEX
   HX - HEAT INDEX
  VSB - VISIBILITY
$$




USA.gov is the U.S. government's official web portal to all federal, state and local government web resources and services.